When you browse on this site, cookies collect data to enhance your experience and personalize the content and advertising you see.
Visit our Privacy Policy to learn more. By continuing to use the site, you agree to this use of cookies and data.
  • In Hungary
  • List of Countries
  • For 7 days
  • Water Temperature
  • Weather Map
  • News
  • Weather Widgets
  • user-avatar
    Login

    Hourly Weather Mohovka

    Today, 18 August, Sunday

    Time Temperature Precipitation Wind Pressure Humidity
    00:00 +18°C° 0 mm 1 mps 734 mmHg 95%
    01:00 +18°C° 0 mm 1 mps 734 mmHg 95%
    02:00 +16°C° 0 mm 1 mps 734 mmHg 96%
    03:00 +16°C° 0 mm 1 mps 734 mmHg 96%
    04:00 +16°C° 0 mm 1 mps 735 mmHg 97%
    05:00 +16°C° 0 mm 1 mps 735 mmHg 97%
    06:00 +17°C° 0 mm 2 mps 735 mmHg 95%
    07:00 +18°C° 0 mm 2 mps 735 mmHg 93%
    08:00 +18°C° 0 mm 2 mps 735 mmHg 91%
    09:00 +19°C° 0.1 mm 2 mps 736 mmHg 86%
    10:00 +21°C° 0.1 mm 2 mps 736 mmHg 81%
    11:00 +23°C° 0.1 mm 2 mps 736 mmHg 76%
    12:00 +22°C° 0.4 mm 3 mps 736 mmHg 75%
    13:00 +22°C° 0.4 mm 3 mps 737 mmHg 74%
    14:00 +23°C° 0.4 mm 4 mps 737 mmHg 73%
    15:00 +22°C° 0.4 mm 4 mps 737 mmHg 75%
    16:00 +22°C° 0.4 mm 4 mps 737 mmHg 77%
    17:00 +21°C° 0.4 mm 4 mps 737 mmHg 79%
    18:00 +20°C° 0.1 mm 3 mps 738 mmHg 83%
    19:00 +19°C° 0.1 mm 3 mps 738 mmHg 88%
    20:00 +18°C° 0.1 mm 3 mps 738 mmHg 93%
    21:00 +17°C° 0 mm 2 mps 739 mmHg 93%
    22:00 +17°C° 0 mm 2 mps 739 mmHg 94%
    23:00 +16°C° 0 mm 2 mps 739 mmHg 94%

    Tomorrow, 19 August, Monday

    Time Temperature Precipitation Wind Pressure Humidity
    00:00 +16°C° 0 mm 2 mps 740 mmHg 95%
    01:00 +15°C° 0 mm 2 mps 740 mmHg 96%
    02:00 +15°C° 0 mm 2 mps 740 mmHg 97%
    03:00 +14°C° 0 mm 2 mps 741 mmHg 97%
    04:00 +14°C° 0 mm 2 mps 741 mmHg 97%
    05:00 +14°C° 0 mm 2 mps 741 mmHg 97%
    06:00 +15°C° 0 mm 2 mps 742 mmHg 93%
    07:00 +16°C° 0 mm 2 mps 742 mmHg 88%
    08:00 +17°C° 0 mm 3 mps 742 mmHg 84%
    09:00 +19°C° 0 mm 3 mps 743 mmHg 79%
    10:00 +20°C° 0 mm 3 mps 743 mmHg 74%
    11:00 +21°C° 0 mm 3 mps 743 mmHg 69%
    12:00 +22°C° 0 mm 3 mps 744 mmHg 66%
    13:00 +24°C° 0 mm 3 mps 744 mmHg 62%
    14:00 +25°C° 0 mm 3 mps 744 mmHg 58%
    15:00 +25°C° 0 mm 2 mps 744 mmHg 61%
    16:00 +24°C° 0 mm 2 mps 744 mmHg 63%
    17:00 +24°C° 0 mm 1 mps 744 mmHg 66%
    18:00 +23°C° 0 mm 1 mps 744 mmHg 71%
    19:00 +21°C° 0 mm 1 mps 744 mmHg 75%
    20:00 +18°C° 0 mm 0 mps 745 mmHg 80%
    21:00 +19°C° 0 mm 1 mps 745 mmHg 81%
    22:00 +19°C° 0 mm 1 mps 745 mmHg 82%
    23:00 +19°C° 0 mm 1 mps 745 mmHg 83%

    Day after tomorrow, 20 August, Tuesday

    Time Temperature Precipitation Wind Pressure Humidity
    00:00 +18°C° 0 mm 1 mps 745 mmHg 85%
    01:00 +18°C° 0 mm 1 mps 745 mmHg 87%
    02:00 +18°C° 0 mm 1 mps 745 mmHg 88%
    03:00 +16°C° 0 mm 1 mps 746 mmHg 88%
    04:00 +16°C° 0 mm 1 mps 746 mmHg 88%
    05:00 +16°C° 0 mm 1 mps 746 mmHg 88%
    06:00 +19°C° 0 mm 1 mps 746 mmHg 82%
    07:00 +21°C° 0 mm 1 mps 746 mmHg 76%
    08:00 +23°C° 0 mm 1 mps 747 mmHg 70%
    09:00 +24°C° 0 mm 2 mps 747 mmHg 65%
    10:00 +25°C° 0 mm 2 mps 747 mmHg 60%
    11:00 +26°C° 0 mm 2 mps 747 mmHg 56%
    12:00 +27°C° 0 mm 2 mps 747 mmHg 54%
    13:00 +27°C° 0 mm 2 mps 746 mmHg 53%
    14:00 +28°C° 0 mm 2 mps 746 mmHg 51%
    15:00 +27°C° 0 mm 2 mps 746 mmHg 55%
    16:00 +27°C° 0 mm 1 mps 746 mmHg 59%
    17:00 +27°C° 0 mm 1 mps 746 mmHg 63%
    18:00 +25°C° 0 mm 1 mps 746 mmHg 67%
    19:00 +24°C° 0 mm 1 mps 746 mmHg 71%
    20:00 +20°C° 0 mm 0 mps 746 mmHg 76%
    21:00 +20°C° 0 mm 0 mps 747 mmHg 77%
    22:00 +22°C° 0 mm 1 mps 747 mmHg 78%
    23:00 +21°C° 0 mm 1 mps 747 mmHg 79%

    21 August, Wednesday

    Time Temperature Precipitation Wind Pressure Humidity
    00:00 +21°C° 0 mm 1 mps 747 mmHg 80%
    01:00 +21°C° 0 mm 1 mps 747 mmHg 81%
    02:00 +20°C° 0 mm 1 mps 747 mmHg 83%
    03:00 +20°C° 0 mm 1 mps 747 mmHg 84%
    04:00 +20°C° 0 mm 1 mps 747 mmHg 84%
    05:00 +20°C° 0 mm 1 mps 747 mmHg 85%
    06:00 +22°C° 0 mm 1 mps 747 mmHg 80%
    07:00 +21°C° 0 mm 0 mps 747 mmHg 74%
    08:00 +23°C° 0 mm 0 mps 747 mmHg 69%
    09:00 +24°C° 0 mm 0 mps 747 mmHg 65%
    10:00 +26°C° 0 mm 0 mps 747 mmHg 61%
    11:00 +29°C° 0 mm 1 mps 747 mmHg 56%
    12:00 +29°C° 0 mm 1 mps 747 mmHg 55%
    13:00 +30°C° 0 mm 1 mps 746 mmHg 53%
    14:00 +30°C° 0 mm 1 mps 746 mmHg 51%
    15:00 +30°C° 0 mm 2 mps 746 mmHg 54%
    16:00 +29°C° 0 mm 2 mps 745 mmHg 58%
    17:00 +29°C° 0 mm 2 mps 745 mmHg 61%
    18:00 +27°C° 0 mm 2 mps 745 mmHg 65%
    19:00 +26°C° 0 mm 2 mps 745 mmHg 69%
    20:00 +24°C° 0 mm 2 mps 745 mmHg 73%
    21:00 +24°C° 0 mm 2 mps 745 mmHg 75%
    22:00 +23°C° 0 mm 2 mps 745 mmHg 77%
    23:00 +23°C° 0 mm 2 mps 745 mmHg 79%

    22 August, Thursday

    Time Temperature Precipitation Wind Pressure Humidity
    00:00 +21°C° 0 mm 2 mps 745 mmHg 80%
    01:00 +22°C° 0 mm 1 mps 744 mmHg 81%
    02:00 +21°C° 0 mm 1 mps 744 mmHg 83%
    03:00 +21°C° 0 mm 1 mps 744 mmHg 84%
    04:00 +21°C° 0 mm 1 mps 744 mmHg 85%
    05:00 +21°C° 0 mm 1 mps 744 mmHg 86%
    06:00 +22°C° 0 mm 1 mps 744 mmHg 79%
    07:00 +24°C° 0 mm 1 mps 744 mmHg 73%
    08:00 +26°C° 0 mm 1 mps 744 mmHg 67%
    09:00 +27°C° 0 mm 1 mps 744 mmHg 62%
    10:00 +28°C° 0 mm 1 mps 744 mmHg 58%
    11:00 +29°C° 0 mm 1 mps 744 mmHg 53%
    12:00 +29°C° 0 mm 1 mps 744 mmHg 51%
    13:00 +29°C° 0 mm 1 mps 744 mmHg 50%
    14:00 +30°C° 0 mm 1 mps 744 mmHg 48%
    15:00 +29°C° 0 mm 2 mps 744 mmHg 52%
    16:00 +28°C° 0 mm 2 mps 744 mmHg 57%
    17:00 +28°C° 0 mm 3 mps 744 mmHg 61%
    18:00 +26°C° 0 mm 3 mps 744 mmHg 69%
    19:00 +23°C° 0 mm 4 mps 744 mmHg 77%
    20:00 +21°C° 0 mm 5 mps 744 mmHg 85%
    21:00 +21°C° 0 mm 5 mps 745 mmHg 86%
    22:00 +20°C° 0 mm 4 mps 745 mmHg 88%
    23:00 +19°C° 0 mm 4 mps 745 mmHg 89%

    23 August, Friday

    Time Temperature Precipitation Wind Pressure Humidity
    00:00 +19°C° 0 mm 4 mps 745 mmHg 88%
    01:00 +18°C° 0 mm 4 mps 745 mmHg 87%
    02:00 +18°C° 0 mm 4 mps 745 mmHg 87%
    03:00 +17°C° 0 mm 4 mps 745 mmHg 87%
    04:00 +17°C° 0 mm 4 mps 745 mmHg 87%
    05:00 +17°C° 0 mm 4 mps 745 mmHg 87%
    06:00 +17°C° 0 mm 4 mps 745 mmHg 86%
    07:00 +18°C° 0 mm 4 mps 745 mmHg 84%
    08:00 +18°C° 0 mm 4 mps 745 mmHg 83%
    09:00 +19°C° 0.3 mm 4 mps 745 mmHg 81%
    10:00 +20°C° 0.3 mm 4 mps 745 mmHg 79%
    11:00 +20°C° 0.3 mm 5 mps 745 mmHg 77%
    12:00 +20°C° 1.3 mm 5 mps 745 mmHg 80%
    13:00 +19°C° 1.3 mm 4 mps 744 mmHg 83%
    14:00 +19°C° 1.3 mm 4 mps 744 mmHg 87%
    15:00 +18°C° 1.5 mm 4 mps 744 mmHg 89%
    16:00 +17°C° 1.5 mm 5 mps 744 mmHg 91%
    17:00 +16°C° 1.5 mm 5 mps 744 mmHg 93%
    18:00 +16°C° 1.6 mm 5 mps 744 mmHg 93%
    19:00 +16°C° 1.6 mm 5 mps 744 mmHg 94%
    20:00 +16°C° 1.6 mm 5 mps 743 mmHg 94%
    21:00 +15°C° 0.8 mm 5 mps 743 mmHg 95%
    22:00 +15°C° 0.8 mm 4 mps 743 mmHg 95%
    23:00 +15°C° 0.8 mm 4 mps 743 mmHg 95%
    Show more